GW1572 Weather Reports


time (UTC)temp
F
wind
direction
speed
knots
gust
knots
rain 1hr
in
rain 24hr
in
rain mn
in
humidity
%
barometer
mb
20260507132743 53 223 0.9 0.9 0.00 0.00 0.00 73 1006.7
20260507132122 53 201 0.9 1.7 0.00 0.00 0.00 74 1006.7
20260507130911 51 240 0.0 0.9 0.00 0.00 0.00 84 1006.7
20260507130311 50 234 0.9 0.9 0.00 0.00 0.00 88 1006.7
20260507124550 49 274 0.0 0.0 0.00 0.00 0.00 98 1006.7
20260507123943 49 290 0.0 0.0 0.00 0.00 0.00 99 1006.7
20260507123343 49 289 0.0 0.0 0.00 0.00 0.00 99 1006.7
20260507122748 49 289 0.0 0.0 0.00 0.00 0.00 99 1006.7
20260507122127 48 273 0.0 0.0 0.00 0.00 0.00 99 1006.7
20260507120340 48 286 0.0 0.0 0.00 0.00 0.00 99 1007.1
20260507115712 48 286 0.0 0.0 0.00 0.00 0.00 99 1006.7
20260507115146 48 284 0.0 0.0 0.00 0.00 0.00 99 1006.7
20260507114527 47 287 0.0 0.0 0.00 0.00 0.00 99 1006.7
20260507113916 47 293 0.0 0.0 0.00 0.00 0.00 99 1006.7
20260507113326 47 294 0.0 0.0 0.00 0.00 0.00 99 1006.7
20260507112752 47 291 0.0 0.0 0.00 0.00 0.00 99 1006.7
20260507111513 46 333 0.0 0.0 0.00 0.00 0.00 99 1006.4
20260507110940 46 319 0.0 0.0 0.00 0.00 0.00 99 1006.4
20260507110320 46 282 0.0 0.0 0.00 0.00 0.00 99 1006.4
20260507105717 46 284 0.0 0.0 0.00 0.00 0.00 99 1006.0
20260507105143 45 286 0.0 0.0 0.00 0.00 0.00 99 1006.0
20260507104546 45 290 0.0 0.0 0.00 0.00 0.00 99 1006.0
20260507103320 45 268 0.0 0.0 0.00 0.00 0.00 99 1006.0
20260507102729 45 281 0.0 0.0 0.00 0.00 0.00 99 1005.7
20260507101525 45 277 0.0 0.0 0.00 0.00 0.00 99 1005.7
20260507100912 45 313 0.0 0.0 0.00 0.00 0.00 99 1006.0
20260507100332 45 285 0.0 0.0 0.00 0.00 0.00 99 1006.0
20260507095740 46 276 0.0 0.0 0.00 0.00 0.00 99 1005.4
20260507095110 46 278 0.0 0.0 0.00 0.00 0.00 99 1006.0
20260507093930 46 272 0.0 0.0 0.00 0.00 0.00 99 1006.0
20260507093344 45 207 0.0 0.0 0.00 0.00 0.00 99 1006.0
20260507092744 46 272 0.0 0.0 0.00 0.00 0.00 99 1006.0
20260507092130 45 273 0.0 0.0 0.00 0.00 0.00 98 1006.0
20260507091510 46 272 0.0 0.0 0.00 0.00 0.00 98 1005.7
20260507090939 46 207 0.0 0.0 0.00 0.00 0.00 98 1006.0
20260507090318 46 259 0.0 0.0 0.00 0.00 0.00 98 1006.0
20260507085715 47 260 0.0 0.0 0.00 0.00 0.00 98 1006.0
20260507085109 47 260 0.0 0.0 0.00 0.00 0.00 98 1005.7
20260507084541 47 271 0.0 0.0 0.00 0.00 0.00 97 1005.7
20260507083925 47 275 0.0 0.0 0.00 0.00 0.00 97 1005.7
20260507083327 48 280 0.0 0.0 0.00 0.00 0.00 97 1005.7
20260507082121 48 262 0.0 0.0 0.00 0.00 0.00 96 1005.7
20260507081530 48 270 0.0 0.0 0.00 0.00 0.00 96 1006.0
20260507080917 48 263 0.0 0.0 0.00 0.00 0.00 95 1005.4
20260507080337 49 280 0.0 0.0 0.00 0.00 0.00 95 1005.7
20260507075716 49 261 0.0 0.0 0.00 0.00 0.00 95 1005.7
20260507075135 49 268 0.0 0.0 0.00 0.00 0.00 95 1006.0
20260507074541 49 270 0.0 0.0 0.00 0.00 0.00 94 1006.0
20260507073952 49 264 0.0 0.0 0.00 0.00 0.00 94 1006.0
20260507073328 50 261 0.0 0.0 0.00 0.00 0.00 94 1006.0
20260507072748 49 257 0.0 0.0 0.00 0.00 0.00 94 1006.0
20260507072116 50 270 0.0 0.0 0.00 0.00 0.00 94 1006.0
20260507071537 50 260 0.0 0.0 0.00 0.00 0.00 93 1006.0
20260507070310 50 261 0.0 0.0 0.00 0.00 0.00 93 1005.7
20260507065753 50 264 0.0 0.0 0.00 0.00 0.00 92 1006.0
20260507064514 50 264 0.0 0.0 0.00 0.00 0.00 92 1006.0
20260507063913 50 262 0.0 0.0 0.00 0.00 0.00 92 1006.0
20260507063347 50 260 0.0 0.0 0.00 0.00 0.00 92 1006.0
20260507062716 51 263 0.0 0.0 0.00 0.00 0.00 92 1005.7
20260507062130 51 260 0.0 0.0 0.00 0.00 0.00 91 1005.7
20260507061517 51 260 0.0 0.0 0.00 0.00 0.00 91 1005.7
20260507060928 51 260 0.0 0.0 0.00 0.00 0.00 91 1006.0
20260507060317 51 264 0.0 0.0 0.00 0.00 0.00 91 1006.0
20260507055734 51 264 0.0 0.0 0.00 0.00 0.00 91 1006.0
20260507055110 51 257 0.0 0.0 0.00 0.00 0.00 90 1006.0
20260507053926 51 260 0.0 0.0 0.00 0.00 0.00 91 1006.0
20260507052712 51 256 0.0 0.0 0.00 0.00 0.00 91 1006.0
20260507052147 51 265 0.0 0.0 0.00 0.00 0.00 90 1006.4
20260507051524 51 258 0.0 0.0 0.00 0.00 0.00 90 1006.0
20260507050911 51 263 0.0 0.0 0.00 0.00 0.00 90 1006.4
20260507050342 51 256 0.0 0.0 0.00 0.00 0.00 90 1006.4
20260507045750 51 266 0.0 0.0 0.00 0.00 0.00 90 1006.4
20260507045142 52 260 0.0 0.0 0.00 0.00 0.00 90 1006.4
20260507044539 52 263 0.0 0.0 0.00 0.00 0.00 90 1006.4
20260507043954 52 260 0.0 0.0 0.00 0.00 0.00 90 1006.4
20260507041541 52 283 0.0 0.0 0.00 0.00 0.00 90 1006.4
20260507040932 52 303 0.0 0.0 0.00 0.00 0.00 90 1006.4
20260507040332 52 282 0.0 0.0 0.00 0.00 0.00 90 1006.0
20260507035713 52 291 0.0 0.0 0.00 0.00 0.55 90 1006.0
20260507035145 52 282 0.0 0.0 0.00 0.00 0.55 90 1006.0
20260507034518 52 275 0.0 0.0 0.00 0.00 0.55 89 1006.0
20260507033911 52 268 0.0 0.0 0.00 0.00 0.55 90 1006.0
20260507033343 53 269 0.0 0.0 0.00 0.00 0.55 91 1005.7
20260507032121 53 299 0.0 0.0 0.00 0.00 0.55 91 1006.0
20260507030950 53 321 0.0 0.0 0.00 0.00 0.55 95 1005.7
20260507030351 54 286 0.0 0.0 0.00 0.00 0.55 95 1006.0
20260507025726 54 270 0.0 0.0 0.00 0.00 0.55 96 1006.0
20260507024540 54 268 0.0 0.0 0.00 0.00 0.55 95 1005.7
20260507023911 54 275 0.0 0.0 0.00 0.00 0.55 95 1006.0
20260507023354 55 262 0.0 0.0 0.00 0.00 0.55 95 1006.0
20260507022710 55 273 0.0 0.0 0.00 0.00 0.55 95 1006.0
20260507022117 55 278 0.0 0.0 0.00 0.00 0.55 95 1005.7
20260507021541 55 282 0.0 0.0 0.00 0.00 0.55 95 1006.0
20260507020939 55 268 0.0 0.0 0.00 0.00 0.55 95 1006.0
20260507020318 56 291 0.0 0.0 0.00 0.00 0.55 95 1006.0
20260507015728 56 274 0.0 0.0 0.00 0.00 0.55 95 1005.4
20260507015145 56 305 0.0 0.0 0.00 0.00 0.55 94 1005.0
20260507014513 56 309 0.0 0.0 0.00 0.00 0.55 97 1005.0
20260507013930 56 298 0.0 0.9 0.00 0.00 0.55 97 1005.0
20260507013354 56 280 0.0 0.0 0.00 0.00 0.55 98 1005.0
20260507012144 56 272 0.9 1.7 0.00 0.00 0.55 98 1005.0
20260507011532 57 271 0.0 0.0 0.00 0.00 0.55 98 1004.7
20260507010953 57 286 0.0 0.0 0.00 0.00 0.55 98 1004.7
20260507010329 57 289 0.0 0.0 0.00 0.00 0.55 98 1004.7
20260507005135 57 285 0.0 0.0 0.00 0.00 0.55 97 1004.4
20260507004543 57 302 0.0 0.0 0.00 0.00 0.55 97 1004.7
20260507003344 57 250 0.0 0.0 0.00 0.00 0.55 96 1004.0
20260507002728 57 272 0.0 0.0 0.00 0.00 0.55 96 1004.4
20260507001548 57 341 0.0 0.0 0.00 0.00 0.55 96 1004.4
20260507000314 57 273 0.0 0.0 0.00 0.00 0.55 95 1003.3
20260506235729 57 273 0.0 0.0 0.00 0.00 0.55 95 1004.0
20260506235133 57 269 0.0 0.0 0.00 0.00 0.55 95 1004.0
20260506234523 57 270 0.0 0.0 0.00 0.00 0.55 94 1004.4
20260506233939 57 264 0.0 0.0 0.00 0.00 0.55 94 1004.4
20260506233351 58 292 0.0 0.0 0.00 0.00 0.55 95 1003.7
20260506232743 58 288 0.0 0.0 0.00 0.00 0.55 95 1004.0
20260506232149 58 268 0.0 0.0 0.00 0.00 0.55 95 1003.3
20260506231525 58 268 0.0 0.0 0.00 0.00 0.55 95 1003.7
20260506230932 58 273 0.0 0.0 0.00 0.00 0.55 94 1004.0
20260506230329 58 283 0.0 0.0 0.00 0.00 0.55 93 1004.4
20260506225711 58 289 0.0 0.0 0.00 0.00 0.55 92 1004.4
20260506225110 59 269 0.0 0.0 0.00 0.00 0.55 92 1004.4
20260506224517 59 292 0.0 0.0 0.00 0.00 0.55 92 1004.4
20260506223932 59 303 0.0 0.0 0.00 0.00 0.55 90 1004.4
20260506223327 59 267 0.0 0.0 0.00 0.00 0.55 89 1004.4
20260506222722 59 316 0.0 0.0 0.00 0.00 0.55 89 1004.0
20260506222145 60 286 0.0 0.0 0.00 0.00 0.55 88 1004.0
20260506221515 60 276 0.0 0.0 0.00 0.00 0.55 85 1004.0
20260506220918 60 304 0.9 1.7 0.00 0.00 0.55 83 1004.0
20260506220343 60 263 1.7 1.7 0.00 0.00 0.55 83 1004.0
20260506215738 60 317 0.0 0.9 0.00 0.00 0.55 87 1003.7
20260506215142 60 268 1.7 1.7 0.00 0.00 0.55 84 1004.0
20260506214549 60 281 1.7 1.7 0.00 0.00 0.55 84 1004.0
20260506213317 60 15 0.9 0.9 0.00 0.00 0.55 90 1003.3
20260506212713 60 309 0.0 0.0 0.00 0.00 0.55 90 1003.3
20260506212127 60 294 0.0 0.0 0.00 0.00 0.55 89 1003.7
20260506210930 60 296 0.9 0.9 0.00 0.00 0.55 87 1003.7
20260506210347 60 341 0.0 0.9 0.00 0.00 0.55 88 1003.7
20260506204531 61 284 0.9 1.7 0.00 0.00 0.55 83 1003.3
20260506203311 60 278 0.9 0.9 0.00 0.00 0.55 82 1003.7
20260506202713 60 270 1.7 2.6 0.00 0.00 0.55 83 1003.7
20260506201533 60 283 0.9 0.9 0.00 0.00 0.55 84 1004.0
20260506200314 60 223 0.0 0.9 0.00 0.00 0.55 85 1003.7
20260506195752 60 275 0.9 0.9 0.00 0.00 0.55 82 1003.7
20260506194536 60 265 1.7 1.7 0.00 0.00 0.55 83 1003.3
20260506193953 60 208 1.7 1.7 0.00 0.00 0.55 84 1003.3
20260506193353 59 292 0.9 0.9 0.00 0.00 0.55 88 1003.3
20260506192743 59 280 0.9 0.9 0.00 0.00 0.55 86 1003.3
20260506192132 59 233 0.9 1.7 0.00 0.00 0.55 86 1003.3
20260506191543 59 260 0.9 1.7 0.00 0.00 0.55 89 1003.3
20260506190913 58 254 1.7 1.7 0.00 0.00 0.55 87 1003.7
20260506190341 58 264 0.0 0.9 0.00 0.00 0.55 89 1003.7
20260506185719 58 215 1.7 2.6 0.00 0.00 0.55 88 1003.3
20260506184536 58 258 0.0 0.9 0.00 0.00 0.55 90 1003.3
20260506183920 57 186 1.7 2.6 0.00 0.00 0.55 90 1003.3
20260506183330 57 250 1.7 1.7 0.00 0.00 0.55 90 1003.3
20260506182741 57 244 1.7 2.6 0.00 0.00 0.55 91 1003.3
20260506181541 56 280 0.0 0.0 0.00 0.00 0.55 92 1003.3
20260506180936 56 219 0.9 1.7 0.00 0.00 0.55 92 1003.3
20260506180354 56 208 0.9 0.9 0.00 0.00 0.55 92 1003.3
20260506175748 56 265 0.9 1.7 0.00 0.00 0.55 93 1003.3
20260506175127 56 254 1.7 2.6 0.00 0.00 0.55 95 1003.7
20260506174531 54 244 2.6 2.6 0.00 0.00 0.55 98 1003.7
20260506173943 54 259 0.9 0.9 0.00 0.00 0.55 98 1003.7
20260506173318 54 233 1.7 2.6 0.00 0.00 0.55 99 1003.7
20260506172712 54 121 0.9 0.9 0.00 0.00 0.55 99 1003.7
20260506172141 54 182 3.5 5.2 0.00 0.00 0.55 99 1003.7
20260506170953 54 222 1.7 1.7 0.00 0.00 0.55 99 1003.7
20260506170310 53 209 4.3 7.0 0.00 0.00 0.55 99 1003.7
20260506163946 54 243 1.7 1.7 0.00 0.00 0.55 99 1003.7
20260506163334 54 262 0.9 0.9 0.00 0.00 0.55 99 1003.3
20260506162749 54 188 1.7 1.7 0.00 0.00 0.55 99 1003.3
20260506162115 55 285 1.7 1.7 0.00 0.00 0.55 99 1003.3
20260506161546 55 253 2.6 3.5 0.00 0.00 0.55 99 1003.3
20260506160934 54 234 2.6 2.6 0.00 0.00 0.55 99 1003.3
20260506160351 55 223 3.5 5.2 0.00 0.00 0.55 99 1003.7
20260506155712 54 219 2.6 5.2 0.00 0.00 0.55 99 1003.3
20260506155128 55 220 3.5 6.1 0.00 0.00 0.55 99 1003.3
20260506154542 55 216 1.7 2.6 0.00 0.00 0.55 99 1003.0
20260506153930 55 240 1.7 1.7 0.00 0.00 0.55 99 1003.3
20260506153334 55 234 0.9 1.7 0.00 0.00 0.55 99 1003.0
20260506152733 55 260 2.6 2.6 0.00 0.00 0.55 99 1003.0
20260506151533 55 241 1.7 1.7 0.00 0.00 0.55 99 1002.7
20260506150933 55 212 0.9 0.9 0.00 0.00 0.55 99 1002.7
20260506150311 55 219 1.7 1.7 0.00 0.00 0.55 99 1002.3
20260506145750 55 233 0.9 0.9 0.00 0.00 0.55 99 1002.3
20260506145133 55 219 2.6 2.6 0.00 0.00 0.55 99 1002.3
20260506144538 55 224 1.7 2.6 0.00 0.00 0.55 99 1002.3
20260506143929 55 271 3.5 5.2 0.00 0.00 0.55 99 1002.3
20260506143317 55 236 3.5 5.2 0.00 0.00 0.55 99 1002.0
20260506142716 56 310 3.5 3.5 0.00 0.00 0.55 99 1002.3
20260506142117 56 263 3.5 5.2 0.00 0.00 0.55 99 1001.6
20260506141523 57 224 4.3 7.8 0.00 0.00 0.55 99 1001.6
20260506140935 57 225 3.5 3.5 0.00 0.00 0.55 99 1001.6
20260506140343 60 237 5.2 7.0 0.00 0.00 0.55 99 1001.6
20260506135734 60 297 4.3 5.2 0.00 0.00 0.55 99 1001.0
20260506135139 60 329 2.6 2.6 0.00 0.00 0.55 99 1001.0
20260506134512 60 328 0.9 0.9 0.00 0.00 0.55 99 1000.6
20260506133920 60 353 1.7 1.7 0.00 0.00 0.55 99 1001.0
20260506133350 60 50 0.9 1.7 0.00 0.00 0.54 99 1000.6